Tracking 29747 objects as of 9-Oct-2024
HD Live streaming from Space Station
objects crossing your sky now

BREEZE-M DEB

Track BREEZE-M DEB now!
10-day predictions


NORAD ID: 38607
Int'l Code: 2008-011BE
Perigee: 894.0 km
Apogee: 26,451.2 km
Inclination: 49.8 °
Period: 470.7 minutes
Semi major axis: 20043 km
RCS: 0.0283 m2 (small)
Launch date: March 14, 2008
Source: Commonwealth of Independent States (former USSR) (CIS)
Launch site: TYURATAM MISSILE AND SPACE COMPLEX (TTMTR)

Note: This is SATELLITE DEBRIS
Your satellite tracking list
Your tracking list is empty




NASA's NSSDC Master Catalog

Two Line Element Set (TLE):
1 38607U 08011BE  24282.44910654  .00000157  00000-0  79650-2 0  9997
2 38607  49.7790 269.2765 6375391 305.1247 243.7044  3.05941204152993
Source of the keplerian elements: AFSPC